User: anonymous   Login
Location: Laas
(43.4693°N, 0.3073°E)
Time: 16:36:27
(UTC+00:00)
Language:

Cosmos 1302 Rocket - Orbit

View from above orbital plane
View from above orbital plane
View from above satellite
View from above satellite

Ground track
Ground track

The orbit data is extracted from the following two-line orbital elements,

1 12792U 81084B   21019.46723684  .00000032  00000-0  19536-4 0  9998
2 12792  74.0300 139.3961 0012517 107.7070 252.5451 14.37606519 63620
Epoch (UTC): 19 January 2021 11:12:49
Eccentricity: 0.0012517
inclination: 74.0300°
perigee height: 757 km
apogee height: 775 km
right ascension of ascending node: 139.3961°
argument of perigee: 107.7070°
revolutions per day: 14.37606519
mean anomaly at epoch: 252.5451°
orbit number at epoch: 6362

The dashed part of the orbit path shows where the satellite is in the earth's shadow,  

DLR